| time (UTC) | temp F | wind direction | speed MPH | gust MPH | rain 1hr in | rain 24hr in | rain mn in | humidity % | barometer mb |
| 20260503021526 | 43 | 0 | 0.0 | 0.0 | 0.01 | 0.32 | 0.03 | 90 | 1015.4 |
| 20260503021011 | 43 | 0 | 0.0 | 0.0 | 0.01 | 0.32 | 0.03 | 90 | 1015.3 |
| 20260503020517 | 43 | 0 | 0.0 | 3.0 | 0.01 | 0.32 | 0.03 | 90 | 1015.4 |
| 20260503020034 | 43 | 0 | 0.0 | 3.0 | 0.01 | 0.32 | 0.03 | 90 | 1015.5 |
| 20260503015511 | 43 | 0 | 0.0 | 3.0 | 0.01 | 0.32 | 0.03 | 90 | 1015.6 |
| 20260503015017 | 43 | 0 | 0.0 | 3.0 | 0.01 | 0.32 | 0.03 | 90 | 1015.6 |
| 20260503014530 | 43 | 0 | 0.0 | 3.0 | 0.02 | 0.32 | 0.03 | 90 | 1015.6 |
| 20260503014010 | 43 | 0 | 0.0 | 0.0 | 0.02 | 0.32 | 0.03 | 90 | 1015.6 |
| 20260503013512 | 43 | 0 | 0.0 | 0.0 | 0.01 | 0.31 | 0.02 | 90 | 1015.6 |
| 20260503013028 | 44 | 0 | 0.0 | 3.0 | 0.01 | 0.31 | 0.02 | 90 | 1015.6 |
| 20260503012516 | 44 | 0 | 0.0 | 3.0 | 0.01 | 0.31 | 0.02 | 90 | 1015.6 |
| 20260503012015 | 44 | 0 | 0.0 | 3.0 | 0.01 | 0.31 | 0.02 | 90 | 1015.6 |
| 20260503011532 | 44 | 0 | 0.0 | 3.0 | 0.01 | 0.31 | 0.02 | 90 | 1015.5 |
| 20260503011008 | 44 | 0 | 0.0 | 3.0 | 0.01 | 0.31 | 0.02 | 90 | 1015.6 |
| 20260503010510 | 44 | 0 | 0.0 | 3.0 | 0.01 | 0.31 | 0.02 | 90 | 1015.5 |
| 20260503010032 | 44 | 0 | 0.0 | 0.0 | 0.01 | 0.31 | 0.02 | 90 | 1015.6 |
| 20260503005510 | 44 | 0 | 0.0 | 2.0 | 0.01 | 0.31 | 0.02 | 90 | 1015.6 |
| 20260503005013 | 44 | 0 | 0.0 | 2.0 | 0.01 | 0.31 | 0.02 | 90 | 1015.7 |
| 20260503004530 | 44 | 0 | 0.0 | 4.0 | 0.00 | 0.30 | 0.01 | 90 | 1015.7 |
| 20260503004010 | 44 | 0 | 0.0 | 4.0 | 0.00 | 0.30 | 0.01 | 90 | 1015.6 |
| 20260503003513 | 44 | 0 | 0.0 | 3.0 | 0.00 | 0.30 | 0.01 | 90 | 1015.7 |
| 20260503003035 | 44 | 0 | 0.0 | 3.0 | 0.00 | 0.30 | 0.01 | 90 | 1015.7 |
| 20260503002510 | 44 | 0 | 0.0 | 0.0 | 0.00 | 0.30 | 0.01 | 90 | 1015.6 |
| 20260503002011 | 44 | 0 | 0.0 | 0.0 | 0.00 | 0.30 | 0.01 | 90 | 1015.6 |
| 20260503001528 | 44 | 0 | 0.0 | 2.0 | 0.00 | 0.30 | 0.01 | 90 | 1015.5 |
| 20260503001010 | 44 | 0 | 0.0 | 2.0 | 0.00 | 0.30 | 0.01 | 90 | 1015.6 |
| 20260503000512 | 44 | 0 | 0.0 | 0.0 | 0.00 | 0.30 | 0.01 | 90 | 1015.5 |
| 20260503000035 | 44 | 0 | 0.0 | 0.0 | 0.01 | 0.30 | 0.01 | 90 | 1015.5 |
| 20260502235511 | 44 | 0 | 0.0 | 4.0 | 0.01 | 0.30 | 0.01 | 90 | 1015.5 |
| 20260502235009 | 45 | 0 | 0.0 | 5.0 | 0.01 | 0.30 | 0.01 | 90 | 1015.6 |
| 20260502234546 | 45 | 0 | 0.0 | 5.0 | 0.01 | 0.30 | 0.01 | 90 | 1015.6 |
| 20260502234012 | 45 | 69 | 1.0 | 5.0 | 0.01 | 0.30 | 0.01 | 89 | 1015.6 |
| 20260502233512 | 45 | 68 | 2.0 | 5.0 | 0.01 | 0.30 | 0.01 | 89 | 1015.6 |
| 20260502233026 | 45 | 0 | 1.0 | 5.0 | 0.01 | 0.30 | 0.01 | 89 | 1015.7 |
| 20260502232510 | 45 | 0 | 0.0 | 5.0 | 0.01 | 0.30 | 0.01 | 89 | 1015.6 |
| 20260502232010 | 45 | 65 | 0.0 | 5.0 | 0.01 | 0.30 | 0.01 | 89 | 1015.6 |
| 20260502231532 | 45 | 0 | 0.0 | 3.0 | 0.01 | 0.30 | 0.01 | 90 | 1015.7 |
| 20260502231013 | 45 | 0 | 0.0 | 0.0 | 0.01 | 0.30 | 0.01 | 90 | 1015.8 |
| 20260502230511 | 45 | 0 | 0.0 | 0.0 | 0.01 | 0.30 | 0.01 | 90 | 1015.7 |
| 20260502230030 | 45 | 0 | 0.0 | 0.0 | 0.00 | 0.29 | 0.00 | 90 | 1015.7 |
| 20260502225508 | 45 | 0 | 0.0 | 0.0 | 0.00 | 0.29 | 0.29 | 90 | 1015.7 |
| 20260502225008 | 45 | 0 | 0.0 | 0.0 | 0.00 | 0.29 | 0.29 | 89 | 1015.8 |
| 20260502224529 | 45 | 0 | 0.0 | 0.0 | 0.00 | 0.29 | 0.29 | 89 | 1015.8 |
| 20260502224017 | 45 | 0 | 0.0 | 0.0 | 0.00 | 0.29 | 0.29 | 89 | 1015.9 |
| 20260502223508 | 45 | 0 | 0.0 | 0.0 | 0.00 | 0.29 | 0.29 | 89 | 1015.9 |
| 20260502223036 | 45 | 0 | 0.0 | 3.0 | 0.01 | 0.29 | 0.29 | 89 | 1016.0 |
| 20260502222511 | 45 | 0 | 0.0 | 3.0 | 0.01 | 0.29 | 0.29 | 89 | 1015.8 |
| 20260502222012 | 45 | 0 | 0.0 | 3.0 | 0.01 | 0.29 | 0.29 | 89 | 1015.9 |
| 20260502221527 | 45 | 0 | 0.0 | 3.0 | 0.01 | 0.29 | 0.29 | 89 | 1016.0 |
| 20260502221015 | 45 | 0 | 0.0 | 8.0 | 0.01 | 0.29 | 0.29 | 89 | 1015.9 |
| 20260502220511 | 45 | 64 | 0.0 | 8.0 | 0.01 | 0.29 | 0.29 | 89 | 1015.8 |
| 20260502220034 | 45 | 57 | 1.0 | 8.0 | 0.02 | 0.29 | 0.29 | 89 | 1015.8 |
| 20260502215510 | 46 | 57 | 0.0 | 4.0 | 0.02 | 0.29 | 0.29 | 89 | 1015.8 |
| 20260502215008 | 46 | 60 | 0.0 | 4.0 | 0.02 | 0.29 | 0.29 | 89 | 1015.8 |
| 20260502214527 | 46 | 91 | 0.0 | 4.0 | 0.02 | 0.29 | 0.29 | 89 | 1015.8 |
| 20260502214014 | 46 | 82 | 0.0 | 4.0 | 0.03 | 0.29 | 0.29 | 89 | 1015.9 |
| 20260502213511 | 46 | 0 | 0.0 | 0.0 | 0.03 | 0.29 | 0.29 | 89 | 1015.9 |
| 20260502213029 | 46 | 0 | 0.0 | 0.0 | 0.02 | 0.28 | 0.28 | 89 | 1015.9 |
| 20260502212511 | 46 | 0 | 0.0 | 5.0 | 0.03 | 0.28 | 0.28 | 89 | 1016.0 |
| 20260502212011 | 46 | 0 | 0.0 | 5.0 | 0.04 | 0.28 | 0.28 | 89 | 1015.8 |
| 20260502211533 | 46 | 0 | 0.0 | 5.0 | 0.04 | 0.28 | 0.28 | 88 | 1015.9 |
| 20260502211010 | 46 | 0 | 0.0 | 3.0 | 0.05 | 0.28 | 0.28 | 88 | 1015.9 |
| 20260502210516 | 46 | 0 | 0.0 | 0.0 | 0.05 | 0.28 | 0.28 | 88 | 1015.9 |
| 20260502210028 | 46 | 0 | 0.0 | 0.0 | 0.04 | 0.27 | 0.27 | 88 | 1015.8 |
| 20260502205517 | 46 | 0 | 0.0 | 4.0 | 0.04 | 0.27 | 0.27 | 88 | 1015.9 |
| 20260502205009 | 46 | 0 | 0.0 | 6.0 | 0.04 | 0.27 | 0.27 | 88 | 1015.8 |
| 20260502204537 | 46 | 0 | 0.0 | 6.0 | 0.04 | 0.27 | 0.27 | 88 | 1015.8 |
| 20260502204008 | 46 | 84 | 1.0 | 6.0 | 0.03 | 0.26 | 0.26 | 88 | 1015.7 |
| 20260502203510 | 46 | 75 | 1.0 | 6.0 | 0.03 | 0.26 | 0.26 | 88 | 1015.8 |
| 20260502203050 | 46 | 49 | 1.0 | 6.0 | 0.03 | 0.26 | 0.26 | 88 | 1015.7 |
| 20260502202510 | 46 | 75 | 2.0 | 6.0 | 0.02 | 0.25 | 0.25 | 88 | 1015.7 |
| 20260502202008 | 46 | 61 | 0.0 | 4.0 | 0.01 | 0.24 | 0.24 | 88 | 1015.7 |
| 20260502201529 | 46 | 0 | 0.0 | 3.0 | 0.01 | 0.24 | 0.24 | 88 | 1015.7 |
| 20260502201010 | 46 | 0 | 0.0 | 4.0 | 0.01 | 0.23 | 0.23 | 88 | 1015.7 |
| 20260502200511 | 46 | 0 | 0.0 | 4.0 | 0.01 | 0.23 | 0.23 | 88 | 1015.6 |
| 20260502200027 | 47 | 0 | 0.0 | 4.0 | 0.01 | 0.23 | 0.23 | 88 | 1015.6 |
| 20260502195509 | 47 | 68 | 0.0 | 6.0 | 0.01 | 0.23 | 0.23 | 88 | 1015.5 |
| 20260502195010 | 47 | 79 | 0.0 | 7.0 | 0.02 | 0.23 | 0.23 | 88 | 1015.4 |
| 20260502194530 | 47 | 80 | 0.0 | 7.0 | 0.02 | 0.23 | 0.23 | 88 | 1015.4 |
| 20260502194011 | 47 | 0 | 0.0 | 4.0 | 0.02 | 0.23 | 0.23 | 88 | 1015.5 |
| 20260502193513 | 47 | 0 | 0.0 | 0.0 | 0.02 | 0.23 | 0.23 | 88 | 1015.3 |
| 20260502193028 | 47 | 0 | 0.0 | 2.0 | 0.02 | 0.23 | 0.23 | 88 | 1015.4 |
| 20260502192515 | 47 | 0 | 0.0 | 2.0 | 0.03 | 0.23 | 0.23 | 88 | 1015.3 |
| 20260502192010 | 47 | 0 | 0.0 | 2.0 | 0.03 | 0.23 | 0.23 | 88 | 1015.2 |
| 20260502191528 | 47 | 0 | 0.0 | 2.0 | 0.04 | 0.23 | 0.23 | 88 | 1015.2 |
| 20260502191010 | 47 | 0 | 0.0 | 3.0 | 0.04 | 0.22 | 0.22 | 88 | 1015.2 |
| 20260502190510 | 47 | 0 | 1.0 | 3.0 | 0.04 | 0.22 | 0.22 | 88 | 1015.2 |
| 20260502190028 | 47 | 0 | 0.0 | 0.0 | 0.05 | 0.22 | 0.22 | 88 | 1015.2 |
| 20260502185509 | 47 | 0 | 0.0 | 0.0 | 0.04 | 0.21 | 0.21 | 88 | 1015.2 |
| 20260502185010 | 47 | 0 | 0.0 | 1.0 | 0.05 | 0.21 | 0.21 | 88 | 1015.1 |
| 20260502184529 | 47 | 0 | 0.0 | 2.0 | 0.06 | 0.21 | 0.21 | 88 | 1015.1 |
| 20260502184012 | 48 | 0 | 0.0 | 2.0 | 0.06 | 0.21 | 0.21 | 88 | 1015.1 |
| 20260502183512 | 48 | 0 | 0.0 | 2.0 | 0.07 | 0.21 | 0.21 | 88 | 1015.0 |
| 20260502183028 | 48 | 0 | 0.0 | 2.0 | 0.07 | 0.21 | 0.21 | 88 | 1015.1 |
| 20260502182509 | 48 | 0 | 0.0 | 0.0 | 0.06 | 0.20 | 0.20 | 88 | 1015.0 |
| 20260502182012 | 48 | 0 | 0.0 | 0.0 | 0.06 | 0.20 | 0.20 | 88 | 1015.0 |
| 20260502181530 | 48 | 0 | 0.0 | 0.0 | 0.06 | 0.19 | 0.19 | 88 | 1015.0 |
| 20260502181009 | 48 | 0 | 0.0 | 0.0 | 0.05 | 0.18 | 0.18 | 88 | 1015.0 |
| 20260502180508 | 48 | 0 | 0.0 | 0.0 | 0.05 | 0.18 | 0.18 | 88 | 1015.0 |
| 20260502170518 | 49 | 0 | 0.0 | 0.0 | 0.06 | 0.13 | 0.13 | 87 | 1014.5 |
| 20260502164011 | 49 | 0 | 0.0 | 4.0 | 0.05 | 0.11 | 0.11 | 86 | 1014.4 |
| 20260502163511 | 49 | 0 | 1.0 | 4.0 | 0.05 | 0.11 | 0.11 | 86 | 1014.3 |
| 20260502163040 | 49 | 88 | 0.0 | 3.0 | 0.04 | 0.10 | 0.10 | 85 | 1014.3 |
| 20260502162511 | 49 | 31 | 0.0 | 3.0 | 0.03 | 0.09 | 0.09 | 86 | 1014.3 |
| 20260502162016 | 49 | 0 | 0.0 | 2.0 | 0.02 | 0.08 | 0.08 | 85 | 1014.4 |
| 20260502161539 | 49 | 0 | 0.0 | 0.0 | 0.01 | 0.07 | 0.07 | 85 | 1014.4 |
| 20260502161008 | 49 | 0 | 0.0 | 3.0 | 0.01 | 0.07 | 0.07 | 85 | 1014.5 |
| 20260502160511 | 49 | 0 | 0.0 | 3.0 | 0.01 | 0.07 | 0.07 | 84 | 1014.5 |
| 20260502152013 | 51 | 0 | 0.0 | 4.0 | 0.04 | 0.06 | 0.06 | 84 | 1014.2 |
| 20260502151527 | 51 | 0 | 0.0 | 2.0 | 0.05 | 0.06 | 0.06 | 84 | 1014.2 |
| 20260502151008 | 51 | 0 | 0.0 | 2.0 | 0.05 | 0.06 | 0.06 | 85 | 1014.1 |
| 20260502150511 | 51 | 0 | 0.0 | 0.0 | 0.05 | 0.06 | 0.06 | 85 | 1014.1 |
| 20260502130510 | 54 | 0 | 1.0 | 8.0 | 0.00 | 0.01 | 0.00 | 75 | 1013.6 |
| 20260502123508 | 57 | 0 | 0.0 | 9.0 | 0.00 | 0.01 | 0.00 | 71 | 1013.6 |
| 20260502123041 | 58 | 65 | 1.0 | 6.0 | 0.00 | 0.01 | 0.00 | 71 | 1013.7 |
| 20260502122510 | 58 | 88 | 0.0 | 6.0 | 0.00 | 0.01 | 0.00 | 72 | 1013.6 |
| 20260502122011 | 58 | 0 | 0.0 | 6.0 | 0.00 | 0.01 | 0.00 | 73 | 1013.5 |
| 20260502121528 | 58 | 92 | 1.0 | 7.0 | 0.00 | 0.01 | 0.00 | 73 | 1013.4 |
| 20260502121010 | 58 | 0 | 0.0 | 7.0 | 0.00 | 0.01 | 0.00 | 73 | 1013.6 |
| 20260502120516 | 58 | 0 | 2.0 | 7.0 | 0.00 | 0.01 | 0.00 | 73 | 1013.5 |
| 20260502115511 | 57 | 0 | 0.0 | 2.0 | 0.00 | 0.01 | 0.00 | 74 | 1013.6 |
| 20260502115011 | 57 | 98 | 0.0 | 1.0 | 0.00 | 0.01 | 0.00 | 73 | 1013.6 |
| 20260502114534 | 57 | 0 | 0.0 | 1.0 | 0.00 | 0.01 | 0.00 | 72 | 1013.7 |
| 20260502114008 | 57 | 0 | 0.0 | 1.0 | 0.00 | 0.01 | 0.00 | 73 | 1013.7 |
| 20260502113511 | 57 | 0 | 0.0 | 0.0 | 0.00 | 0.01 | 0.00 | 73 | 1013.6 |
| 20260502113036 | 57 | 0 | 0.0 | 4.0 | 0.00 | 0.01 | 0.00 | 73 | 1013.7 |
| 20260502112511 | 57 | 0 | 0.0 | 4.0 | 0.00 | 0.01 | 0.00 | 72 | 1013.7 |
| 20260502112010 | 58 | 0 | 0.0 | 4.0 | 0.00 | 0.01 | 0.00 | 73 | 1013.7 |
| 20260502111527 | 58 | 0 | 1.0 | 4.0 | 0.00 | 0.01 | 0.00 | 71 | 1013.6 |
| 20260502111011 | 58 | 0 | 0.0 | 1.0 | 0.00 | 0.01 | 0.00 | 71 | 1013.6 |
| 20260502110511 | 58 | 0 | 0.0 | 0.0 | 0.00 | 0.01 | 0.00 | 70 | 1013.6 |
| 20260502110028 | 59 | 0 | 0.0 | 0.0 | 0.00 | 0.01 | 0.00 | 69 | 1013.5 |
| 20260502105518 | 59 | 0 | 0.0 | 1.0 | 0.00 | 0.01 | 0.00 | 69 | 1013.6 |
| 20260502105010 | 59 | 0 | 0.0 | 4.0 | 0.00 | 0.01 | 0.00 | 69 | 1013.6 |
| 20260502104529 | 59 | 0 | 0.0 | 4.0 | 0.00 | 0.01 | 0.00 | 69 | 1013.6 |
| 20260502104010 | 59 | 0 | 0.0 | 4.0 | 0.00 | 0.01 | 0.00 | 70 | 1013.6 |
| 20260502103512 | 59 | 0 | 1.0 | 4.0 | 0.00 | 0.01 | 0.00 | 70 | 1013.5 |
| 20260502103026 | 59 | 0 | 0.0 | 4.0 | 0.00 | 0.01 | 0.00 | 71 | 1013.5 |
| 20260502102509 | 58 | 0 | 0.0 | 4.0 | 0.00 | 0.01 | 0.00 | 70 | 1013.6 |
| 20260502102011 | 58 | 0 | 1.0 | 6.0 | 0.00 | 0.01 | 0.00 | 69 | 1013.5 |
| 20260502101530 | 58 | 0 | 2.0 | 7.0 | 0.00 | 0.01 | 0.00 | 71 | 1013.6 |
| 20260502101010 | 58 | 92 | 2.0 | 7.0 | 0.00 | 0.01 | 0.00 | 71 | 1013.6 |
| 20260502100510 | 58 | 107 | 0.0 | 4.0 | 0.00 | 0.01 | 0.00 | 72 | 1013.6 |
| 20260502091528 | 54 | 0 | 0.0 | 0.0 | 0.00 | 0.01 | 0.00 | 76 | 1013.5 |
| 20260502091012 | 54 | 0 | 0.0 | 0.0 | 0.00 | 0.01 | 0.00 | 77 | 1013.5 |
| 20260502090510 | 54 | 0 | 0.0 | 0.0 | 0.00 | 0.01 | 0.00 | 78 | 1013.4 |
| 20260502071526 | 47 | 0 | 0.0 | 0.0 | 0.00 | 0.01 | 0.00 | 83 | 1013.5 |
| 20260502071009 | 47 | 0 | 0.0 | 0.0 | 0.00 | 0.01 | 0.00 | 84 | 1013.5 |
| 20260502070512 | 47 | 0 | 0.0 | 0.0 | 0.00 | 0.01 | 0.00 | 84 | 1013.6 |
| 20260502070028 | 46 | 0 | 0.0 | 0.0 | 0.00 | 0.01 | 0.00 | 84 | 1013.6 |
| 20260502065510 | 46 | 0 | 0.0 | 0.0 | 0.00 | 0.01 | 0.00 | 84 | 1013.6 |
| 20260502065013 | 46 | 0 | 0.0 | 0.0 | 0.00 | 0.01 | 0.00 | 85 | 1013.6 |
| 20260502064530 | 46 | 0 | 0.0 | 0.0 | 0.00 | 0.01 | 0.00 | 85 | 1013.5 |
| 20260502064012 | 46 | 0 | 0.0 | 0.0 | 0.00 | 0.01 | 0.00 | 85 | 1013.5 |
| 20260502063510 | 45 | 0 | 0.0 | 0.0 | 0.00 | 0.01 | 0.00 | 85 | 1013.5 |
| 20260502063028 | 45 | 0 | 0.0 | 0.0 | 0.00 | 0.01 | 0.00 | 85 | 1013.4 |
| 20260502062507 | 45 | 0 | 0.0 | 0.0 | 0.00 | 0.01 | 0.00 | 86 | 1013.5 |
| 20260502062012 | 45 | 0 | 0.0 | 0.0 | 0.00 | 0.01 | 0.00 | 86 | 1013.3 |
| 20260502061528 | 44 | 0 | 0.0 | 0.0 | 0.00 | 0.01 | 0.00 | 86 | 1013.2 |
| 20260502061007 | 44 | 0 | 0.0 | 0.0 | 0.00 | 0.01 | 0.00 | 86 | 1013.2 |
| 20260502060513 | 44 | 0 | 0.0 | 0.0 | 0.00 | 0.01 | 0.00 | 86 | 1013.2 |
| 20260502060028 | 44 | 0 | 0.0 | 0.0 | 0.00 | 0.01 | 0.00 | 86 | 1013.2 |
| 20260502055508 | 43 | 0 | 0.0 | 0.0 | 0.00 | 0.01 | 0.00 | 87 | 1013.2 |
| 20260502055008 | 43 | 0 | 0.0 | 0.0 | 0.00 | 0.01 | 0.00 | 86 | 1013.3 |
| 20260502054534 | 43 | 0 | 0.0 | 0.0 | 0.00 | 0.01 | 0.00 | 86 | 1013.2 |
| 20260502054008 | 43 | 0 | 0.0 | 0.0 | 0.00 | 0.01 | 0.00 | 86 | 1013.2 |
| 20260502053506 | 43 | 0 | 0.0 | 0.0 | 0.00 | 0.01 | 0.00 | 86 | 1013.3 |
| 20260502053027 | 43 | 0 | 0.0 | 2.0 | 0.00 | 0.01 | 0.00 | 87 | 1013.3 |
| 20260502052515 | 42 | 0 | 0.0 | 2.0 | 0.00 | 0.01 | 0.00 | 87 | 1013.3 |
| 20260502052011 | 42 | 0 | 0.0 | 2.0 | 0.00 | 0.01 | 0.00 | 86 | 1013.3 |
| 20260502051536 | 42 | 0 | 0.0 | 0.0 | 0.00 | 0.01 | 0.00 | 86 | 1013.2 |
| 20260502051008 | 42 | 0 | 0.0 | 2.0 | 0.00 | 0.01 | 0.00 | 85 | 1013.3 |
| 20260502050511 | 42 | 0 | 0.0 | 2.0 | 0.00 | 0.01 | 0.00 | 86 | 1013.2 |
| 20260502050030 | 42 | 0 | 0.0 | 2.0 | 0.00 | 0.01 | 0.00 | 86 | 1013.2 |
| 20260502045515 | 42 | 0 | 0.0 | 0.0 | 0.00 | 0.01 | 0.00 | 85 | 1013.2 |
| 20260502045009 | 42 | 0 | 0.0 | 0.0 | 0.00 | 0.01 | 0.00 | 85 | 1013.1 |
| 20260502044530 | 42 | 0 | 0.0 | 0.0 | 0.00 | 0.01 | 0.00 | 85 | 1013.1 |
| 20260502044012 | 42 | 0 | 0.0 | 0.0 | 0.00 | 0.01 | 0.00 | 85 | 1013.0 |
| 20260502043510 | 42 | 0 | 0.0 | 0.0 | 0.00 | 0.01 | 0.00 | 85 | 1013.0 |
| 20260502043034 | 42 | 0 | 0.0 | 0.0 | 0.00 | 0.01 | 0.00 | 85 | 1013.1 |
| 20260502042513 | 42 | 0 | 0.0 | 0.0 | 0.00 | 0.01 | 0.00 | 85 | 1013.1 |
| 20260502042013 | 42 | 0 | 0.0 | 0.0 | 0.00 | 0.01 | 0.00 | 85 | 1013.0 |
| 20260502041530 | 42 | 0 | 0.0 | 0.0 | 0.00 | 0.01 | 0.00 | 84 | 1013.0 |
| 20260502041011 | 42 | 0 | 0.0 | 0.0 | 0.00 | 0.01 | 0.00 | 84 | 1013.0 |
| 20260502040510 | 42 | 0 | 0.0 | 0.0 | 0.00 | 0.01 | 0.00 | 84 | 1013.1 |
| 20260502040028 | 43 | 0 | 0.0 | 0.0 | 0.00 | 0.01 | 0.00 | 84 | 1013.1 |
| 20260502035513 | 43 | 0 | 0.0 | 0.0 | 0.00 | 0.01 | 0.00 | 83 | 1013.2 |
| 20260502035012 | 43 | 0 | 0.0 | 0.0 | 0.00 | 0.01 | 0.00 | 83 | 1013.2 |
| 20260502034528 | 43 | 0 | 0.0 | 0.0 | 0.00 | 0.01 | 0.00 | 84 | 1013.1 |
| 20260502034013 | 43 | 0 | 0.0 | 0.0 | 0.00 | 0.01 | 0.00 | 84 | 1013.1 |
| 20260502033512 | 43 | 0 | 0.0 | 0.0 | 0.00 | 0.01 | 0.00 | 84 | 1013.3 |
| 20260502033028 | 43 | 0 | 0.0 | 0.0 | 0.00 | 0.01 | 0.00 | 83 | 1013.2 |
| 20260502032511 | 44 | 0 | 0.0 | 0.0 | 0.00 | 0.01 | 0.00 | 83 | 1013.3 |
| 20260502032010 | 44 | 0 | 0.0 | 0.0 | 0.00 | 0.01 | 0.00 | 83 | 1013.3 |
| 20260502031528 | 44 | 0 | 0.0 | 0.0 | 0.00 | 0.01 | 0.00 | 84 | 1013.5 |
| 20260502031011 | 44 | 0 | 0.0 | 0.0 | 0.00 | 0.01 | 0.00 | 84 | 1013.5 |
| 20260502030511 | 44 | 0 | 0.0 | 0.0 | 0.00 | 0.01 | 0.00 | 84 | 1013.6 |
| 20260502030032 | 44 | 0 | 0.0 | 0.0 | 0.00 | 0.01 | 0.00 | 84 | 1013.6 |
| 20260502025519 | 44 | 0 | 0.0 | 0.0 | 0.00 | 0.01 | 0.00 | 84 | 1013.5 |
| 20260502025011 | 44 | 0 | 0.0 | 0.0 | 0.00 | 0.01 | 0.00 | 83 | 1013.5 |
| 20260502024530 | 44 | 0 | 0.0 | 0.0 | 0.00 | 0.01 | 0.00 | 82 | 1013.5 |
| 20260502024012 | 44 | 0 | 0.0 | 0.0 | 0.00 | 0.01 | 0.00 | 81 | 1013.6 |
| 20260502023512 | 44 | 0 | 0.0 | 0.0 | 0.00 | 0.01 | 0.00 | 81 | 1013.7 |
| 20260502023031 | 45 | 0 | 0.0 | 0.0 | 0.00 | 0.01 | 0.00 | 81 | 1013.7 |
| 20260502022510 | 45 | 0 | 0.0 | 0.0 | 0.00 | 0.01 | 0.00 | 82 | 1013.7 |
| 20260502022015 | 45 | 0 | 0.0 | 0.0 | 0.00 | 0.01 | 0.00 | 81 | 1013.7 |